Near-Earth Object Wide-field Infrared Survey Explorer
軌道要素
Epoch = 2018 Feb. 11.0 TT
T = 2018 Feb. 7.98122 TT Peri. = 215.73507
e = 0.8221450 Node = 284.04233 2000.0
q = 0.5305996 AU Incl. = 29.58756
a = 2.9833274 AU n = 0.19127257 P = 5.15 years
光度変化
H = 17.6 G = 0.15
※ 緑色の曲線は、m1 = 16.0 + 5 logΔ + 10.0 log r の光度曲線です。